Flag for Thailand Weather past 2 weeks in Hat Yai, Thailand

Now
82 °F

Broken clouds.


Feels Like: 88 °F
Forecast: 77 / 87 °F
Wind: 3 mph from South

Location: Hat Yai Airport

Current Time: Aug 5, 2015 at 10:06:33 AM

Latest Report: Aug 5, 2015 at 9:30 AM


Visibility: N/A

Pressure: 29.83 "Hg

Humidity: 74%

Dew point: 73 °F

Location of Hat YaiLocation

Historic Weather in Hat Yai — Graph

°F

Hat Yai temperature yesterday

Maximum temperature yesterday: 91 °F (at 1:30 PM)
Minimum temperature yesterday: 73 °F (at 5:00 AM)
Average temperature yesterday: 80 °F

Past Weeks' High & Low Weather Summary

 TemperatureHumidityPressure
High93 °F (Jul 23, 1:30 PM)100% (Jul 22, 3:00 AM)29.95 "Hg (Jul 22, 3:00 AM)
Low73 °F (Jul 25, 6:30 AM)47% (Jul 25, 3:00 PM)29.77 "Hg (Jul 24, 3:30 PM)
Average80 °F85%29.86 "Hg
* Reported Jul 21 9:00 AM — Aug 5 9:00 AM, Hat Yai, Weather by CustomWeather, © 2015

Note: Actual official high and low records may vary slightly from our data, if they occured in-between our weather recording intervals... More about our weather records

Advertising

Hat Yai weather history for previous 24 hours

 ConditionsComfort  
Time TempWeatherWind HumidityBarometerVisibility
9:00 AM
Wed, Aug 5
81 °FPartly sunny.5 mph79%29.83 "HgN/A
8:30 AM79 °FPartly sunny.5 mph79%29.83 "HgN/A
8:00 AM79 °FPartly sunny.8 mph74%29.83 "HgN/A
7:30 AM77 °FBroken clouds.8 mph79%29.83 "HgN/A
7:00 AM77 °FBroken clouds.5 mph79%29.80 "HgN/A
6:30 AM77 °FBroken clouds.7 mph79%29.80 "HgN/A
6:00 AM77 °FPartly cloudy.8 mph83%29.80 "HgN/A
5:00 AM75 °FPassing clouds.2 mph94%29.80 "HgN/A
4:30 AM75 °FPassing clouds.3 mph94%29.80 "HgN/A
3:30 AM77 °FPartly cloudy.No wind94%29.80 "HgN/A
3:00 AM77 °FPartly cloudy.2 mph89%29.80 "HgN/A
2:30 AM77 °FPartly cloudy.5 mph89%29.83 "HgN/A
2:00 AM77 °FLight rain. Partly cloudy.5 mph94%29.83 "HgN/A
1:30 AM79 °FPassing clouds.No wind94%29.83 "HgN/A
1:00 AM79 °FPassing clouds.No wind94%29.83 "HgN/A
12:30 AM79 °FPassing clouds.No wind89%29.86 "HgN/A
12:00 AM79 °FPassing clouds.2 mph89%29.86 "HgN/A
11:30 PM
Tue, Aug 4
79 °FPassing clouds.No wind89%29.86 "HgN/A
11:00 PM79 °FPassing clouds.No wind89%29.89 "HgN/A
10:30 PM79 °FPassing clouds.No wind89%29.86 "HgN/A
10:00 PM81 °FPassing clouds.3 mph89%29.86 "HgN/A
9:30 PM81 °FPassing clouds.No wind84%29.83 "HgN/A
9:00 PM81 °FPassing clouds.2 mph84%29.83 "HgN/A
8:30 PM81 °FPassing clouds.3 mph84%29.83 "HgN/A
8:00 PM81 °FPassing clouds.No wind89%29.83 "HgN/A
7:30 PM81 °FPartly cloudy.No wind89%29.80 "HgN/A
7:00 PM82 °FPartly cloudy.5 mph79%29.80 "HgN/A
6:30 PM82 °FBroken clouds.3 mph84%29.80 "HgN/A
6:00 PM81 °FPartly sunny.2 mph89%29.77 "HgN/A
5:30 PM81 °FPartly sunny.2 mph84%29.77 "HgN/A
5:00 PM81 °FScattered showers. Partly sunny.3 mph84%29.77 "HgN/A
4:30 PM81 °FThunderstorms. Broken clouds.9 mph89%29.80 "HgN/A
4:00 PM86 °FScattered showers. Broken clouds.9 mph70%29.77 "HgN/A
3:30 PM84 °FScattered showers. Broken clouds.6 mph84%29.77 "HgN/A
3:00 PM88 °FBroken clouds.7 mph79%29.77 "HgN/A
2:30 PM88 °FBroken clouds.9 mph79%29.80 "HgN/A
2:00 PM90 °FBroken clouds.7 mph71%29.80 "HgN/A
1:30 PM91 °FBroken clouds.13 mph63%29.80 "HgN/A
1:00 PM90 °FBroken clouds.9 mph59%29.80 "HgN/A
12:30 PM90 °FPartly sunny.12 mph71%29.80 "HgN/A
12:00 PM88 °FPartly sunny.2 mph75%29.80 "HgN/A
11:30 AM86 °FPartly sunny.7 mph70%29.83 "HgN/A
11:00 AM86 °FPartly sunny.3 mph70%29.83 "HgN/A
10:30 AM86 °FBroken clouds.5 mph79%29.83 "HgN/A
10:00 AM82 °FBroken clouds.2 mph84%29.83 "HgN/A
Weather by CustomWeather, © 2015

See weather overviewHow to use our weather pages